Weather Roundup
Issued by NWS Corpus Christi, TX

Home | Current Version | Previous Version | Text Only | Print | Product List | Glossary On
Versions: 1 2 3 4 5 6 7 8 9 10 11 12 13 14 15 16 17 18 19 20 21 22 23 24 25 26 27 28 29 30 31 32 33 34 35 36 37 38 39 40 41 42 43 44 45 46 47 48 49 50
270
ASUS44 KCRP 061510
HRRCRP

SOUTH TEXAS REGIONAL WEATHER ROUNDUP
NATIONAL WEATHER SERVICE CORPUS CHRISTI TX
900 AM CST SAT FEB 06 2016


TXZ229>244-061600-
...CORPUS CHRISTI AREA OBSERVATIONS...

CITY           SKY/WX    TMP DP  RH WIND       PRES   REMARKS
CORPUS CHRISTI SUNNY     54  45  71 NW16      30.40R
NAS CORPUS CHR SUNNY     55  49  80 NW13      30.39R
ROCKPORT       SUNNY     55  46  71 NW10      30.38R
KINGSVILLE NAS MOSUNNY   53  48  83 NW13      30.41R
ALICE          MOSUNNY   52  44  74 NW13      30.41R
FALFURRIAS     MOSUNNY   55  43  64 NW13G22   30.42R
$$

...VICTORIA AREA OBSERVATIONS...

CITY           SKY/WX    TMP DP  RH WIND       PRES   REMARKS
VICTORIA       SUNNY     52  40  63 W14       30.37R
BEEVILLE       FAIR      51  43  73 NW10G17   30.40R
PLEASANTON     SUNNY     47  32  57 NW10      30.42R
SAN ANTONIO    MOSUNNY   48  27  44 NW14G23   30.40R
$$

...LAREDO AREA OBSERVATIONS...

CITY           SKY/WX    TMP DP  RH WIND       PRES   REMARKS
LAREDO         SUNNY     48  31  51 NW14      30.47R
COTULLA        SUNNY     43  32  65 NW9       30.45R
DEL RIO        SUNNY     45  24  43 NW9       30.48R
MCALLEN        SUNNY     54  46  74 W7        30.44R
HEBBRONVILLE   NOT AVBL
$$

...OTHER TEXAS OBSERVATIONS...

CITY           SKY/WX    TMP DP  RH WIND       PRES   REMARKS
BROWNSVILLE    SUNNY     58  50  75 NW10      30.40R
HOUSTON        MOSUNNY   48  46  93 CALM      30.31R
COL. STATION   SUNNY     45  34  65 W13       30.31R
AUSTIN         SUNNY     49  27  42 NW16G22   30.36R
WACO           SUNNY     45  33  63 NW15G23   30.29R
FORT WORTH     LGT RAIN  43  38  82 N10       30.31R
WICHITA FALLS  SUNNY     37  27  67 NW13      30.39R WCI  29
LUBBOCK        MOSUNNY   27  18  69 NW6       30.41R
EL PASO        SUNNY     27   7  42 CALM      30.48R
$$

...MARINE OBSERVATIONS...

STATION/POSITION TIME  SKY/WX   TEMP    WIND        PRES    VSBY  WAVE   SWELL
                                AIR SEA DIR/SP/G                  HT/PER HT/PER
                 (UTC)          (F)     (DEG/KT/KT) (MB)    (MI)  (FT/S) (FT/S)
PORT ARANSAS     1500            52 59  310/  7/  9 1029.4R
BUOY 90 E PORT A 1450            59 69  340/ 23/ 27 1026.6R         4/ 6   2/ 7
BUOY 45 SE BAFFI 1450            63 68  290/ 17/ 23 1027.6R         3/ 6   2/ 6
BUOY 200 E PT IS 1450                                 N/A           4/ 7   3/ 7
BUOY 15 E GALVES 1450            51 58  350/  8/ 10 1026.5R         2/ 6   2/ 6
$$




USA.gov is the U.S. government's official web portal to all federal, state and local government web resources and services.